DECAYED

STARLINK-2352, 47892 (Decayed)

Orbit data source: Space-Track

STARLINK-2352, 47892 was a payload satellite owned by SpaceX/Seattle (US) in LEO that was launched on Sun, 14 Mar 2021 UTC via an FALCON 9 launch vehicle from the Air Force Eastern Test Range (AFETR). Payload-class satellites include a variety of spacecraft equipped with specific instruments for various scientific and technological missions. These include communications satellites like Starlink; space stations such as the ISS; scientific satellites like the Hubble; Earth observation satellites from companies like Planet Labs, Umbra, and HawkEye 360; GPS; miniature CubeSats for education and research; and military/defense satellites.

Not visible in the next 10 days
Identifier
47892, 2021-021AJ
Orbit
Decayed
Country
Flag of USUS
Related business
Manufacturer
SpaceX/Seattle
Mission
Decayed Commercial Communications
Bus & Motor
STARLINK, Unknown motor
Mass
260 kg wet, ~248 kg dry
Launch date (UTC)
2021-03-14 (5 years ago)
Launch vehicle
FALCON 9
Launch site
Air Force Eastern Test Range (AFETR)
Object type
Payload
Rocket body
Debris
Shape & HBR
Box + 1 Pan, 10.1 m
Radar Cross Section
13.562 m², Large (>1 m²)

Expand to show TLE details & history
Last TLE update: 1 year ago

TLE from 1 year ago
0 STARLINK-2352
1 47892U 21021AJ  25070.31524757  .14105083  12414-4  78350-3 0  9998
2 47892  53.0338  18.5823 0003731 263.3236 223.7816 16.42149246222138
Epoch: 2025-03-11T07:33Z
TLE epoch observation values (Epoch: 2025-03-11T07:33:57.390Z)
Latitude
39.73757°
Longitude
-122.59474°
Altitude
165.353 km
Speed
7.811 km/s
True Right ascension
10h 40m 27s
True Declination
39° 33' 12"
Sunlit
Object was in full shadow at epoch
Visualization orbit readout
Latitude
Unknown
Longitude
Unknown
Altitude
Unknown
Speed
Unknown
Apparent Right ascension
Unknown
Apparent Declination
Unknown
Sunlit
N/A
Visualization observer readout
Local Sidereal Time
21:25:56
Azimuth
Unknown
Elevation
Unknown
Doppler factor
Unknown
Orbital elements
Apogee altitude
162.821 km
Perigee altitude
157.942 km
Semi-major axis
6,538.518 km
Eccentricity
0.00037
Inclination
53.0338°
RAAN
18.5823°
Arg. of periapsis
263.3236°
True anomaly
223.75203°
Mean anomaly
223.7816°
Eccentric anomaly
223.76681°
Mean motion
4.1051 °/min
Orbital period
87.7 mins
BSTAR
0.0007835
Loading maneuver chart data...
Computing Atmospheric mass density...

Documentation

Showing up to 5 results
|